Location: Columbia
(38.9520°N, 92.3340°W)
Time: 09:11:35
(UTC-05:00)

ISS - Visible Passes

Search period start: 20 September 2018 00:00
Search period end: 30 September 2018 00:00
Orbit: 402 x 408 km, 51.6° (Epoch: 20 September)

Date Brightness Start Highest point End Pass type
(mag) Time Alt. Az. Time Alt. Az. Time Alt. Az.
20 Sep -1.6 19:43:02 10° SE 19:43:50 11° SE 19:44:38 10° ESE visible
20 Sep -1.3 21:16:37 10° WSW 21:17:34 18° WSW 21:17:34 18° WSW visible
21 Sep -3.8 20:24:43 10° SW 20:27:56 55° SE 20:28:37 44° E visible
22 Sep -2.7 19:33:14 10° SSW 19:36:03 27° SE 19:38:53 10° ENE visible
22 Sep -2.0 21:09:30 10° W 21:12:08 31° NW 21:12:08 31° NW visible
23 Sep -3.2 20:17:09 10° WSW 20:20:24 56° NW 20:22:42 17° NE visible
24 Sep -3.8 19:25:06 10° SW 19:28:22 73° SE 19:31:40 10° NE visible
24 Sep -1.4 21:02:48 10° WNW 21:05:11 18° NNW 21:05:46 17° N visible
25 Sep -1.8 20:10:06 10° W 20:12:57 26° NNW 20:15:49 10° NNE visible
26 Sep -1.0 20:56:30 10° NW 20:57:57 12° NNW 20:58:47 12° N visible
27 Sep -1.2 20:03:28 10° WNW 20:05:37 16° NNW 20:07:46 10° NNE visible
29 Sep -1.0 19:57:11 10° NNW 19:58:21 11° NNW 19:59:30 10° N visible
